EW3205 Weather Reports


time (UTC)temp
F
wind
direction
speed
knots
gust
knots
rain 1hr
in
rain 24hr
in
rain mn
in
humidity
%
barometer
mb
20260905113033 64 246 13.0 19.1 0.00 0.17 0.07 71 1002.4
20260905111535 63 238 11.3 21.7 0.00 0.17 0.07 71 1002.3
20260905110029 63 241 12.2 20.0 0.00 0.17 0.07 71 1002.2
20260905104527 63 340 8.7 18.2 0.00 0.17 0.07 71 1002.1
20260905103025 63 267 9.6 20.9 0.00 0.17 0.07 73 1002.0
20260905101527 63 245 8.7 18.2 0.00 0.17 0.07 74 1001.8
20260905100021 61 219 8.7 20.0 0.00 0.17 0.07 74 1001.7
20260905094519 63 230 8.7 20.0 0.00 0.17 0.07 74 1001.6
20260905093016 61 246 7.8 21.7 0.00 0.17 0.07 75 1001.6
20260905091515 61 221 6.1 17.4 0.00 0.17 0.07 77 1001.5
20260905090015 61 240 10.4 17.4 0.00 0.17 0.07 75 1001.4
20260905084511 60 4 7.8 16.5 0.00 0.17 0.07 80 1001.3
20260905083018 59 4 7.8 16.5 0.00 0.17 0.07 80 1001.1
20260905081510 60 261 9.6 16.5 0.00 0.17 0.07 77 1000.9
20260905080006 59 256 5.2 17.4 0.00 0.17 0.07 80 1000.9
20260905074510 60 227 9.6 17.4 0.00 0.17 0.07 78 1000.7
20260905073003 59 232 4.3 14.8 0.00 0.17 0.07 80 1000.7
20260905071505 59 258 5.2 18.2 0.00 0.17 0.07 80 1000.6
20260905070112 59 223 5.2 15.6 0.00 0.17 0.07 80 1000.5
20260905064559 59 275 7.0 15.6 0.00 0.17 0.07 81 1000.3
20260905063058 58 239 10.4 21.7 0.00 0.17 0.07 82 1000.1
20260905061554 58 248 8.7 21.7 0.00 0.17 0.07 82 1000.0
20260905060051 58 4 7.0 16.5 0.00 0.17 0.07 83 999.9
20260905054554 57 4 6.1 17.4 0.00 0.17 0.07 84 999.7
20260905053048 57 277 5.2 16.5 0.00 0.17 0.07 84 999.6
20260905051546 57 273 7.0 14.8 0.00 0.17 0.07 85 999.3
20260905050045 57 281 7.0 16.5 0.00 0.17 0.07 85 999.2
20260905044542 57 220 7.0 16.5 0.00 0.17 0.07 86 999.3
20260905043041 57 258 6.1 12.2 0.00 0.17 0.07 86 999.2
20260905041540 57 236 4.3 13.0 0.00 0.17 0.07 87 999.1
20260905040048 57 4 6.1 17.4 0.00 0.17 0.07 88 998.9
20260905034536 57 274 4.3 13.0 0.00 0.17 0.07 87 998.8
20260905033036 57 221 6.1 14.8 0.00 0.17 0.07 87 998.8
20260905031535 57 63 5.2 10.4 0.00 0.17 0.07 88 998.7
20260905030035 57 240 7.0 16.5 0.00 0.17 0.07 88 998.6
20260905024530 56 238 5.2 13.0 0.00 0.17 0.07 89 998.5
20260905023028 56 240 7.8 15.6 0.00 0.17 0.07 90 998.4
20260905021526 56 254 4.3 14.8 0.00 0.17 0.07 91 998.2
20260905020026 55 254 5.2 16.5 0.05 0.17 0.07 91 998.1
20260905014521 55 288 5.2 17.4 0.05 0.17 0.07 92 998.0
20260905013019 55 244 5.2 14.8 0.06 0.17 0.07 93 997.8
20260905011516 56 268 5.2 12.2 0.06 0.17 0.07 93 997.6
20260905010019 55 236 4.3 10.4 0.02 0.12 0.02 93 997.6
20260905004513 56 215 7.0 13.0 0.02 0.12 0.02 93 997.6
20260905003012 55 226 1.7 6.1 0.02 0.11 0.02 93 997.7
20260905001511 55 238 2.6 9.6 0.01 0.10 0.01 92 997.7
20260905000012 55 247 2.6 6.1 0.00 0.09 0.00 93 997.8
20260904234508 56 267 2.6 7.0 0.00 0.10 0.00 93 997.5
20260904233009 55 235 2.6 9.6 0.00 0.10 0.00 94 997.3
20260904231504 55 248 2.6 5.2 0.00 0.10 0.00 93 997.3
20260904230011 55 253 1.7 5.2 0.00 0.10 0.00 93 997.2
20260904224502 55 225 2.6 5.2 0.01 0.10 0.00 93 997.3
20260904223106 55 227 2.6 6.1 0.03 0.10 0.00 93 997.2
20260904221559 55 258 2.6 7.0 0.06 0.10 0.00 93 997.2
20260904220056 56 252 2.6 9.6 0.06 0.10 0.00 93 997.1
20260904214554 56 287 1.7 8.7 0.06 0.23 0.09 93 997.0
20260904213053 56 265 1.7 7.8 0.02 0.19 0.06 93 997.0
20260904211552 56 244 2.6 7.0 0.02 0.18 0.05 93 996.9
20260904210052 57 242 1.7 5.2 0.02 0.18 0.05 93 996.8
20260904204552 57 236 1.7 5.2 0.02 0.18 0.04 92 996.7
20260904203054 56 239 0.9 4.3 0.02 0.18 0.04 91 996.8
20260904201551 56 285 1.7 4.3 0.02 0.17 0.02 91 996.9
20260904200048 56 247 0.9 7.0 0.02 0.17 0.02 90 996.9
20260904194546 57 242 2.6 6.1 0.02 0.17 0.02 90 996.9
20260904193046 58 227 3.5 7.0 0.01 0.17 0.02 88 996.9
20260904191545 58 258 0.9 4.3 0.00 0.16 0.01 86 996.8
20260904190043 59 261 0.0 4.3 0.00 0.16 0.01 84 996.9
20260904184543 58 259 0.0 4.3 0.00 0.17 0.01 84 996.9
20260904183044 58 240 0.9 3.5 0.00 0.17 0.01 84 997.0
20260904181543 58 227 1.7 5.2 0.00 0.17 0.01 83 997.1
20260904180041 58 223 0.9 4.3 0.00 0.17 0.01 83 997.2
20260904174541 58 233 1.7 5.2 0.00 0.19 0.01 82 997.2
20260904173043 58 251 0.9 5.2 0.00 0.19 0.01 82 997.2
20260904171543 59 236 1.7 5.2 0.00 0.19 0.01 81 997.1
20260904170040 59 233 0.9 7.0 0.00 0.19 0.01 82 997.1
20260904164540 60 228 2.6 9.6 0.00 0.19 0.01 82 997.1
20260904163039 60 272 1.7 4.3 0.00 0.19 0.01 82 997.1
20260904161541 60 281 2.6 12.2 0.00 0.19 0.01 79 997.1
20260904160037 62 243 2.6 7.0 0.00 0.19 0.01 78 997.3
20260904154535 62 245 0.9 7.8 0.00 0.21 0.01 82 997.2
20260904153048 60 239 1.7 6.1 0.00 0.21 0.01 82 997.3
20260904151534 60 242 2.6 8.7 0.00 0.21 0.01 82 997.3
20260904150035 61 285 1.7 9.6 0.00 0.21 0.01 81 997.4
20260904144534 61 227 3.5 9.6 0.00 0.28 0.01 80 997.5
20260904143036 61 4 6.1 10.4 0.00 0.28 0.01 80 997.3
20260904141534 61 281 5.2 10.4 0.00 0.28 0.01 79 997.5
20260904140030 61 4 4.3 11.3 0.00 0.28 0.01 80 997.7
20260904134531 61 4 4.3 9.6 0.00 0.28 0.01 79 997.7
20260904133028 62 260 7.0 10.4 0.00 0.28 0.01 80 997.9
20260904131527 62 4 6.1 9.6 0.00 0.28 0.01 80 998.0
20260904130039 62 4 7.0 12.2 0.00 0.28 0.01 79 998.0
20260904124526 61 209 5.2 11.3 0.00 0.28 0.01 81 998.1
20260904123025 61 4 5.2 11.3 0.00 0.28 0.01 81 998.2
20260904121522 61 193 7.0 9.6 0.00 0.28 0.01 81 998.4
20260904120033 61 213 8.7 14.8 0.00 0.28 0.01 82 998.3
20260904114521 61 4 6.1 14.8 0.00 0.28 0.01 81 998.6